Location: Henderson
(36.0400°N, 114.9810°W)
Time: 17:13:08
(UTC-08:00)

Daily predictions for brighter satellites

Satellite Brightness Start Highest point End
(mag) Time Altitude Azimuth Time Altitude Azimuth Time Altitude Azimuth
Cosmos 1842 Rocket 4.1 17:15:02 10° NNW 17:19:26 66° W 17:23:46 10° S
Cosmos 1992 Rocket 4.3 17:14:16 10° SSW 17:19:27 71° WNW 17:24:39 10° NNE
Cosmos 2263 4.4 17:14:31 10° NNW 17:20:11 54° ENE 17:25:44 10° SE
USA 116 4.1 17:17:51 10° NNE 17:22:10 79° E 17:27:03 10° S
CZ-4 R/B 1.4 17:19:59 10° SSE 17:24:09 75° ENE 17:28:24 10° N
IRAS Rocket 4.2 17:19:32 10° SSE 17:25:03 83° ENE 17:30:39 10° NNW
SL-14 R/B 3.5 17:21:36 10° SSE 17:25:28 48° E 17:29:18 10° NNE
CORIOLIS 4.2 17:20:45 10° SSE 17:26:07 90° NW 17:31:29 10° NNW
Cosmos 1300 3.3 17:23:34 10° NNE 17:27:06 35° E 17:30:37 10° SSE
Cosmos 2369 Rocket 2.2 17:22:16 10° NNW 17:27:58 88° ENE 17:33:40 10° SSE
Cosmos 1484 Rocket 4.2 17:26:51 10° S 17:30:29 43° W 17:34:07 10° NNW
Cosmos 2366 rocket 4.4 17:27:11 10° N 17:33:03 41° ENE 17:38:48 10° SSE
CSL-04 Rocket 4.5 17:28:11 10° S 17:33:39 60° WSW 17:39:07 10° NNW
ERS-2 3.5 17:32:08 10° ESE 17:34:49 19° ENE 17:37:31 10° NNE
Cosmos 1656 Rocket 4.5 17:32:41 10° N 17:37:20 27° ENE 17:42:00 10° ESE
Cosmos 968 Rocket 3.5 17:34:05 10° N 17:39:11 61° ENE 17:44:13 10° SSE
Cosmos 1766 Rocket 3.9 17:35:42 10° SSE 17:39:46 42° E 17:43:51 10° NNE
Okean 3 Rocket 3.6 17:36:40 10° S 17:41:12 90° SSE 17:45:45 10° N
NOAA 12 4.4 17:37:10 10° SE 17:42:06 45° ENE 17:47:04 10° N
Cosmos 1943 Rocket 2.1 17:37:09 10° NNW 17:42:46 77° ENE 17:48:17 10° SSE
CZ-2C R/B 4.1 17:39:06 10° N 17:43:47 69° WNW 17:48:22 10° SSW
MTI 3.7 17:40:46 10° NNE 17:43:58 68° E 17:47:08 10° S
Cosmos 44 3.1 17:42:51 10° SSW 17:47:02 57° ESE 17:51:06 11° NE
ATLAS 2AS CENTAUR R/B 3.1 17:40:36 10° NW 17:48:27 77° WSW 17:55:35 10° SSE
Cosmos 1315 Rocket 2.7 17:45:22 10° S 17:49:16 65° E 17:53:10 10° NNE
SKYMED 2 3.7 17:48:05 10° N 17:52:26 80° WNW 17:56:46 10° SSW
TSX-5 3.1 17:49:56 10° SSW 17:53:03 79° ESE 17:56:06 12° NNE
ASTRO E2 4.1 17:50:33 10° SW 17:54:02 29° SSE 17:56:43 14° ESE
Cosmos 1346 Rocket 3.7 17:52:04 10° NNE 17:55:23 26° ENE 17:58:39 10° SE
YAOGAN 1 3.1 17:53:37 10° S 17:57:53 64° W 18:02:12 10° NNW
DMSP B5D1-3 4.5 17:54:00 10° NNE 17:59:04 65° ESE 18:04:06 10° S
Meteor 1-11 4.3 17:54:57 10° SSE 18:00:18 51° E 18:05:45 10° NNE
FENGYUN 3A 3.5 17:56:07 10° SSE 18:01:27 78° ENE 18:06:49 10° N
OAO 3 Rocket 3.1 17:57:02 10° W 18:01:42 80° S 18:04:51 21° E
Tiangong 1 2.4 18:00:16 10° NW 18:02:06 18° N 18:02:11 18° N
SL-24 R/B - RUBIN 2 4.1 18:00:54 10° NNW 18:05:02 35° NE 18:07:15 21° ESE
H-2A R/B 3.2 18:03:35 10° SE 18:07:04 37° ENE 18:10:37 10° N
Cosmos 864 Rocket 4.4 18:02:37 10° N 18:08:59 79° E 18:15:17 10° S
Cosmos 1726 4.4 18:06:23 10° NNW 18:09:31 27° W 18:12:38 10° SSW
H-2A R/B 4.3 18:07:36 10° WSW 18:10:52 29° S 18:21:44 10° ESE
NOSS 3-4 (A) 4.1 18:04:12 10° NNW 18:11:01 47° NE 18:18:16 10° SE
NOSS 3-4 (C) 4.1 18:04:18 10° NNW 18:11:07 47° NE 18:18:22 10° SE
COSMOS 2406 3.5 18:06:57 10° S 18:12:21 44° ESE 18:15:55 20° NE
Cosmos 44 Rocket 3.1 18:08:11 10° SSW 18:12:50 85° ESE 18:16:17 18° NNE
FengYun 1-2 T 4.4 18:11:23 10° SE 18:16:49 51° ENE 18:22:13 10° N
Thor Agena Rocket 3.9 18:19:43 22° NE 18:22:46 43° E 18:27:42 10° S
Lacrosse 5 4.0 18:22:56 10° SE 18:23:31 11° SE 18:23:31 11° SE
Cosmos 1408 Rocket 4.4 18:28:24 10° SSW 18:32:34 49° W 18:36:45 10° N
Cosmos 332 Rocket 3.8 18:29:28 10° S 18:34:15 59° ESE 18:35:41 41° NE
Cosmos 1515 Rocket 4.2 18:30:20 10° N 18:37:31 19° SSE 18:38:47 10° SSE
Cosmos 2058 2.7 18:34:01 10° S 18:38:10 83° E 18:39:49 36° NNE
SPOT 3 Rocket 4.2 18:33:18 10° S 18:38:19 56° W 18:43:24 10° NNW
ALOS 3.8 18:34:06 10° SSW 18:38:25 38° W 18:42:46 10° NNW
Cosmos 1500 Rocket 3.4 18:40:19 10° S 18:44:45 76° E 18:45:35 57° NNE
Cosmos 1703 3.9 18:42:21 10° SSW 18:46:15 57° W 18:48:42 21° N
Cosmos 2151 2.9 18:42:35 10° S 18:46:50 84° W 18:48:15 42° N
Cosmos 2228 Rocket 3.0 18:43:25 10° N 18:48:01 82° E 18:52:35 10° S
USA 81 3.9 18:45:17 10° S 18:50:33 90° E 18:55:51 10° N
Cosmos 909 Rocket 4.2 18:44:35 10° NNW 18:51:01 46° NE 18:51:13 46° ENE
Cosmos 1626 4.2 18:48:45 10° SW 18:51:56 26° WNW 18:55:07 10° NNW
Cosmos 1777 Rocket 4.4 18:50:31 10° NNW 18:55:42 64° WSW 19:00:53 10° S
Cosmos 1743 Rocket 4.2 18:54:28 10° SSW 18:58:45 54° W 19:00:55 27° NNW
Cosmos 2208 Rocket 4.1 18:58:42 10° S 19:03:13 63° SSE 19:03:13 63° SSE
GEOS 3 Rocket 3.5 19:04:33 77° ENE 19:04:38 77° NE 19:10:01 10° NNW
Meteor 2-15 4.4 19:01:34 10° S 19:07:41 80° W 19:12:53 15° N
Cosmos 1241 Rocket 4.2 19:05:54 10° NNW 19:12:07 76° ENE 19:12:08 76° ENE
Cosmos 371 Rocket 4.0 19:15:56 10° SW 19:20:35 51° WNW 19:20:35 51° WNW
Cosmos 1821 Rocket 4.1 19:18:56 10° N 19:25:04 73° W 19:31:16 10° S
CZ-4C R/B 4.2 19:31:58 10° SSW 19:32:47 15° SSW 19:32:47 15° SSW
